Regional Weather Roundup
Issued by NWS

Home | Current Version | Previous Version | Text Only | Print | Product List | Glossary Off
Versions: 1 2 3 4 5 6 7 8 9 10 11 12 13 14 15 16 17 18 19 20 21 22 23 24 25 26 27 28 29 30 31 32 33 34 35 36 37 38 39 40 41 42 43 44 45 46 47 48 49 50

000
ASUS43 KIND 220409
RWRIN

WEATHER ROUNDUP FOR INDIANA
NATIONAL WEATHER SERVICE INDIANAPOLIS IN
1200 AM EDT MON SEP 22 2014

NOTE: "FAIR" INDICATES FEW OR NO CLOUDS BELOW 12,000 FEET WITH NO
SIGNIFICANT WEATHER AND/OR OBSTRUCTIONS TO VISIBILITY.

* - STATION DOES NOT REPORT WEATHER SUCH AS PRECIPITATION OR FOG.

+ - STATION NOT QUALITY CONTROLLED BY THE NATIONAL WEATHER SERVICE.
    USE DATA WITH CAUTION...ESPECIALLY DEWPOINT AND RELATIVE
    HUMIDITY OBSERVATIONS.

INZ001>003-010>013-019-020-220500-
NORTHWEST INDIANA

CITY           SKY/WX    TMP DP  RH WIND       PRES   REMARKS
GARY /AIRPORT/ PTCLDY    59  45  59 N16G23    30.13R
KNOX *+        PTCLDY    50  46  88 N5        30.10S
LA PORTE +     CLEAR     52  46  80 N10       30.11S
MICHIGAN CITY+ CLOUDY    54  45  71 N12       30.12R
MONTICELLO +   CLEAR     52  50  93 N5        30.11R
RENSSELAER +   CLEAR     52  50  93 CALM      30.12S
VALPARAISO     MOCLDY    54  47  77 N5        30.11S

$$

LMZ046-743>745-220500-
SOUTHERN LAKE MICHIGAN

STATION/POSITION TIME  TEMP WIND        PRES
                       AIR  DIR/SP/G
                 (UTC) (F)  (DEG/KT/KT) (MB)
MICHIGAN CITY    0400   57  350/ 22/ 26   N/A

$$

INZ004-005-014>016-021>024-220500-
NORTH CENTRAL INDIANA

CITY           SKY/WX    TMP DP  RH WIND       PRES   REMARKS
GOSHEN         CLEAR    N/A N/A N/A N14       30.09R
LOGANSPORT +   PTCLDY    52  46  82 NW5       30.11R
PERU/GRISSOM   CLEAR     53  52  96 N6        30.10R
ROCHESTER +    CLEAR     54  48  82 NW7       30.10S
SOUTH BEND     PTCLDY    52  45  77 N10       30.10S
WARSAW +       CLEAR     50  45  81 N7        30.09R

$$

INZ006>009-017-018-025>027-220500-
NORTHEAST INDIANA

CITY           SKY/WX    TMP DP  RH WIND       PRES   REMARKS
ANGOLA *+      PTCLDY    48  39  71 N10       30.07R
FORT WAYNE     PTCLDY    51  45  79 NW8       30.09R
HUNTINGTON +   PTCLDY    51  47  86 NW5       30.09R

$$

INZ028-029-035-036-043>045-051>053-220500-
WEST CENTRAL INDIANA

CITY           SKY/WX    TMP DP  RH WIND       PRES   REMARKS
GREENCASTLE +  CLOUDY    57  50  77 N6        30.11R
LAFAYETTE      CLOUDY    56  50  80 N7        30.11R
TERRE HAUTE    CLOUDY    59  50  72 NW7       30.10S

$$

INZ030>032-037>040-046>048-054>057-064-065-220500-
CENTRAL INDIANA

CITY           SKY/WX    TMP DP  RH WIND       PRES   REMARKS
CP ATTERBURY + MOCLDY    52  50  93 CALM      30.10R
FRANKFORT +    MOCLDY    55  51  86 N7        30.12R
INDIANAPOLIS   CLOUDY    58  48  69 N12       30.09R
-EAGLE CREEK   CLOUDY    58  48  69 N10       30.09R
KOKOMO *+      PTCLDY    54  46  76 N7        30.10R
MARION +       CLEAR     50  46  87 NW3       30.10R
MT COMFORT *+  CLOUDY    55  48  76 N7        30.09S
SHELBYVILLE    MOCLDY    54  49  83 N5        30.08R
ZIONSVILLE +   CLOUDY    55  49  80 N6        30.11R

$$

INZ033-034-041-042-049-050-058-059-220500-
EAST CENTRAL INDIANA

CITY           SKY/WX    TMP DP  RH WIND       PRES   REMARKS
MUNCIE         CLEAR     51  47  86 W7        30.09R

$$

INZ060-061-067>069-081>083-085>088-220500-
SOUTHWEST INDIANA

CITY           SKY/WX    TMP DP  RH WIND       PRES   REMARKS
EVANSVILLE     CLEAR     61  50  67 N3        30.11R
WASHINGTON +   CLEAR     53  51  92 NW6       30.10R

$$

INZ062-063-066-070>080-084-089>092-220500-
SOUTH CENTRAL AND SOUTHEAST INDIANA

CITY           SKY/WX    TMP DP  RH WIND       PRES   REMARKS
BEDFORD +      CLEAR     55  48  76 CALM      30.09
BLOOMINGTON    PTCLDY    53  50  89 CALM      30.10R
NORTH VERNON + CLEAR     54  54 100 CALM      30.09

$$



USA.gov is the U.S. government's official web portal to all federal, state and local government web resources and services.